TimeCDT,TemperatureF,Dew PointF,Humidity,Sea Level PressureIn,VisibilityMPH,Wind Direction,Wind SpeedMPH,Gust SpeedMPH,PrecipitationIn,Events,Conditions,WindDirDegrees,DateUTC
12:35 AM,60.8,57.2,88,30.09,6.0,Calm,Calm,-,N/A,,Mostly Cloudy,0,2012-10-10 05:35:00
12:53 AM,60.1,57.9,93,30.09,5.0,Calm,Calm,-,N/A,,Mostly Cloudy,0,2012-10-10 05:53:00
1:34 AM,60.8,57.2,88,30.08,6.0,Calm,Calm,-,N/A,,Scattered Clouds,0,2012-10-10 06:34:00
1:53 AM,61.0,57.9,90,30.08,6.0,Calm,Calm,-,N/A,,Mostly Cloudy,0,2012-10-10 06:53:00
2:15 AM,60.8,57.2,88,30.08,6.0,Calm,Calm,-,N/A,,Scattered Clouds,0,2012-10-10 07:15:00
2:53 AM,59.0,57.0,93,30.07,5.0,Calm,Calm,-,N/A,,Clear,0,2012-10-10 07:53:00
3:53 AM,57.9,55.9,93,30.08,6.0,Calm,Calm,-,N/A,,Clear,0,2012-10-10 08:53:00
4:27 AM,57.2,55.4,94,30.10,5.0,Calm,Calm,-,N/A,,Scattered Clouds,0,2012-10-10 09:27:00
4:37 AM,57.2,55.4,94,30.10,5.0,Calm,Calm,-,N/A,,Mostly Cloudy,0,2012-10-10 09:37:00
4:53 AM,57.9,55.9,93,30.10,2.5,Calm,Calm,-,N/A,,Overcast,0,2012-10-10 09:53:00
5:04 AM,57.2,55.4,94,30.10,3.0,Calm,Calm,-,N/A,,Overcast,0,2012-10-10 10:04:00
5:07 AM,57.2,55.4,94,30.11,1.8,Calm,Calm,-,N/A,,Overcast,0,2012-10-10 10:07:00
5:21 AM,57.2,55.4,94,30.11,3.0,Calm,Calm,-,N/A,,Overcast,0,2012-10-10 10:21:00
5:46 AM,57.2,55.4,94,30.12,6.0,Calm,Calm,-,N/A,,Scattered Clouds,0,2012-10-10 10:46:00
5:53 AM,57.9,55.9,93,30.12,6.0,Calm,Calm,-,N/A,,Mostly Cloudy,0,2012-10-10 10:53:00
6:53 AM,59.0,57.0,93,30.13,2.0,Calm,Calm,-,N/A,,Overcast,0,2012-10-10 11:53:00
6:58 AM,57.2,57.2,100,30.13,0.8,Calm,Calm,-,N/A,,Overcast,0,2012-10-10 11:58:00
7:53 AM,60.1,59.0,96,30.14,0.2,Calm,Calm,-,N/A,Fog,Fog,0,2012-10-10 12:53:00
8:53 AM,62.1,61.0,96,30.15,0.2,Calm,Calm,-,N/A,Fog,Fog,0,2012-10-10 13:53:00
9:53 AM,63.0,63.0,100,30.17,0.2,Calm,Calm,-,N/A,Fog,Fog,0,2012-10-10 14:53:00
10:27 AM,64.4,62.6,94,30.17,1.8,NW,3.5,-,0.01,,Overcast,310,2012-10-10 15:27:00
10:31 AM,64.4,62.6,94,30.17,3.0,Calm,Calm,-,0.01,,Overcast,0,2012-10-10 15:31:00
10:53 AM,66.9,64.0,90,30.15,6.0,Calm,Calm,-,0.01,,Overcast,0,2012-10-10 15:53:00
11:09 AM,71.6,64.4,78,30.16,10.0,Variable,3.5,-,N/A,,Scattered Clouds,0,2012-10-10 16:09:00
11:53 AM,75.9,62.1,62,30.14,10.0,NW,5.8,-,N/A,,Clear,320,2012-10-10 16:53:00
12:53 PM,77.0,61.0,58,30.11,10.0,West,3.5,-,N/A,,Clear,260,2012-10-10 17:53:00
1:53 PM,80.1,62.1,54,30.09,10.0,Variable,6.9,-,N/A,,Partly Cloudy,0,2012-10-10 18:53:00
2:53 PM,82.0,60.1,47,30.07,10.0,North,6.9,-,N/A,,Clear,360,2012-10-10 19:53:00
3:53 PM,82.0,57.9,44,30.07,10.0,North,5.8,-,N/A,,Clear,10,2012-10-10 20:53:00
4:53 PM,82.0,60.1,47,30.07,10.0,North,4.6,-,N/A,,Clear,360,2012-10-10 21:53:00
5:53 PM,77.0,57.9,52,30.08,10.0,North,4.6,-,N/A,,Clear,350,2012-10-10 22:53:00
6:53 PM,72.0,60.1,66,30.10,10.0,Calm,Calm,-,N/A,,Clear,0,2012-10-10 23:53:00
7:53 PM,69.1,61.0,75,30.11,10.0,Calm,Calm,-,N/A,,Clear,0,2012-10-11 00:53:00
8:53 PM,68.0,60.1,76,30.13,10.0,Calm,Calm,-,N/A,,Clear,0,2012-10-11 01:53:00
9:53 PM,64.0,60.1,87,30.15,10.0,Calm,Calm,-,N/A,,Clear,0,2012-10-11 02:53:00
10:53 PM,64.0,60.1,87,30.16,10.0,Calm,Calm,-,N/A,,Clear,0,2012-10-11 03:53:00
11:53 PM,62.1,57.9,86,30.15,10.0,Calm,Calm,-,N/A,,Clear,0,2012-10-11 04:53:00